CW3363 Weather Reports


time (UTC)temp
C
wind
direction
speed
KPH
gust
KPH
rain 1hr
cm
rain 24hr
cm
rain mn
cm
humidity
%
barometer
mb
20260504223322 26 188 9.7 22.5 0.00 0.00 0.00 66 1011.5
20260504222824 26 153 9.7 22.5 0.00 0.00 0.00 66 1011.5
20260504222327 26 163 11.3 24.1 0.00 0.00 0.00 65 1011.5
20260504221830 26 182 16.1 24.1 0.00 0.00 0.00 64 1011.7
20260504221334 26 194 9.7 20.9 0.00 0.00 0.00 64 1011.7
20260504220858 26 175 8.0 20.9 0.00 0.00 0.00 63 1011.7
20260504220323 26 154 9.7 20.9 0.00 0.00 0.00 63 1011.7
20260504215826 26 147 11.3 24.1 0.00 0.00 0.00 62 1011.7
20260504215328 27 203 16.1 24.1 0.00 0.00 0.00 61 1011.7
20260504214831 27 185 9.7 19.3 0.00 0.00 0.00 61 1011.8
20260504214334 27 214 8.0 20.9 0.00 0.00 0.00 61 1011.8
20260504213837 27 203 9.7 20.9 0.00 0.00 0.00 60 1011.8
20260504213325 27 137 11.3 17.7 0.00 0.00 0.00 60 1012.1
20260504212834 27 201 9.7 22.5 0.00 0.00 0.00 60 1012.1
20260504212338 27 161 6.4 22.5 0.00 0.00 0.00 59 1012.1
20260504211840 27 201 12.9 19.3 0.00 0.00 0.00 58 1012.2
20260504211324 27 178 8.0 17.7 0.00 0.00 0.00 59 1012.2
20260504210849 27 167 8.0 22.5 0.00 0.00 0.00 59 1012.2
20260504210334 27 157 12.9 22.5 0.00 0.00 0.00 58 1012.3
20260504205856 28 175 9.7 19.3 0.00 0.00 0.00 58 1012.3
20260504205341 28 124 8.0 17.7 0.00 0.00 0.00 56 1012.3
20260504204826 28 239 3.2 16.1 0.00 0.00 0.00 57 1012.8
20260504204330 27 197 4.8 16.1 0.00 0.00 0.00 58 1012.7
20260504203835 27 215 8.0 17.7 0.00 0.00 0.00 58 1012.7
20260504203359 28 173 11.3 17.7 0.00 0.00 0.00 57 1012.9
20260504202825 28 165 4.8 14.5 0.00 0.00 0.00 56 1012.9
20260504202351 28 175 9.7 14.5 0.00 0.00 0.00 57 1012.9
20260504201854 28 246 4.8 12.9 0.00 0.00 0.00 57 1013.3
20260504201339 27 176 6.4 16.1 0.00 0.00 0.00 58 1013.3
20260504200845 27 184 8.0 19.3 0.00 0.00 0.00 57 1013.3
20260504200332 27 202 9.7 19.3 0.00 0.00 0.00 57 1013.4
20260504195838 28 231 9.7 16.1 0.00 0.00 0.00 58 1013.4
20260504195324 28 176 4.8 14.5 0.00 0.00 0.00 56 1013.4
20260504194852 28 178 4.8 14.5 0.00 0.00 0.00 56 1013.6
20260504194341 27 208 6.4 17.7 0.00 0.00 0.00 57 1013.6
20260504193845 27 141 8.0 17.7 0.00 0.00 0.00 60 1013.6
20260504193329 27 237 9.7 16.1 0.00 0.00 0.00 57 1013.8
20260504192855 27 211 6.4 19.3 0.00 0.00 0.00 57 1013.8
20260504192339 27 177 4.8 19.3 0.00 0.00 0.00 58 1013.8
20260504191824 27 156 8.0 20.9 0.00 0.00 0.00 58 1013.9
20260504191334 27 186 9.7 20.9 0.00 0.00 0.00 56 1013.9
20260504190820 27 179 6.4 24.1 0.00 0.00 0.00 58 1013.9
20260504190327 27 188 12.9 24.1 0.00 0.00 0.00 59 1014.3
20260504185831 26 182 11.3 20.9 0.00 0.00 0.00 61 1014.3
20260504185339 26 141 14.5 19.3 0.00 0.00 0.00 59 1014.3
20260504184826 27 131 9.7 20.9 0.00 0.00 0.00 58 1014.3
20260504184353 27 142 8.0 20.9 0.00 0.00 0.00 57 1014.3
20260504183841 27 144 11.3 20.9 0.00 0.00 0.00 58 1014.3
20260504183327 27 198 11.3 20.9 0.00 0.00 0.00 58 1014.3
20260504182832 27 145 9.7 22.5 0.00 0.00 0.00 59 1014.3
20260504182341 27 195 12.9 22.5 0.00 0.00 0.00 57 1014.3
20260504181829 26 180 6.4 22.5 0.00 0.00 0.00 60 1014.7
20260504181340 26 142 14.5 25.7 0.00 0.00 0.00 60 1014.7
20260504180827 27 175 9.7 19.3 0.00 0.00 0.00 59 1014.7
20260504180351 27 166 9.7 17.7 0.00 0.00 0.00 57 1014.9
20260504175836 26 165 11.3 24.1 0.00 0.00 0.00 60 1014.9
20260504175344 26 126 9.7 24.1 0.00 0.00 0.00 58 1014.9
20260504174831 26 162 9.7 19.3 0.00 0.00 0.00 58 1015.0
20260504174335 26 162 9.7 27.4 0.00 0.00 0.00 59 1015.0
20260504173841 26 184 12.9 27.4 0.00 0.00 0.00 60 1015.0
20260504173326 25 184 11.3 25.7 0.00 0.00 0.00 60 1015.4
20260504172853 26 157 16.1 25.7 0.00 0.00 0.00 60 1015.4
20260504172357 25 183 9.7 24.1 0.00 0.00 0.00 60 1015.4
20260504171822 25 155 11.3 24.1 0.00 0.00 0.00 62 1015.4
20260504171330 25 172 9.7 20.9 0.00 0.00 0.00 60 1015.4
20260504170820 25 172 11.3 22.5 0.00 0.00 0.00 62 1015.4
20260504170328 25 151 16.1 22.5 0.00 0.00 0.00 62 1015.6
20260504160339 23 200 12.9 25.7 0.00 0.00 0.00 65 1016.3
20260504150819 23 197 9.7 20.9 0.00 0.00 0.00 67 1016.3
20260504150327 22 185 8.0 20.9 0.00 0.00 0.00 68 1016.1
20260504141332 21 156 8.0 20.9 0.00 0.00 0.00 68 1016.3
20260504140839 21 194 6.4 19.3 0.00 0.00 0.00 68 1016.3
20260504140323 21 118 9.7 19.3 0.00 0.00 0.00 68 1016.1
20260504130332 19 141 8.0 11.3 0.00 0.00 0.00 72 1016.0
20260504110324 16 134 3.2 6.4 0.00 0.00 0.00 79 1015.8
20260504100327 16 134 3.2 4.8 0.00 0.00 0.00 77 1015.9
20260504081831 16 171 0.0 1.6 0.00 0.00 0.00 77 1016.9
20260504081336 16 171 0.0 1.6 0.00 0.00 0.00 77 1016.9
20260504080843 16 171 0.0 1.6 0.00 0.00 0.00 77 1016.9
20260504080348 16 171 0.0 1.6 0.00 0.00 0.00 76 1017.2
20260504070337 17 171 1.6 4.8 0.00 0.00 0.00 73 1018.0
20260504050330 18 182 0.0 4.8 0.00 0.00 0.00 70 1018.6
20260504045837 18 182 1.6 4.8 0.00 0.00 0.00 69 1018.6
20260504045323 18 182 0.0 0.0 0.00 0.00 0.00 69 1018.6
20260504044833 18 182 0.0 0.0 0.00 0.00 0.00 68 1018.8
20260504044320 18 182 0.0 0.0 0.00 0.00 0.00 67 1018.8
20260504043829 18 182 0.0 0.0 0.00 0.00 0.00 67 1018.8
20260504043335 18 182 0.0 0.0 0.00 0.00 0.00 66 1018.8
20260504042823 18 182 0.0 4.8 0.00 0.00 0.00 65 1018.8
20260504042332 19 182 0.0 6.4 0.00 0.00 0.00 65 1018.8
20260504041858 19 182 1.6 6.4 0.00 0.00 0.00 64 1019.0
20260504041323 19 184 3.2 8.0 0.00 0.00 0.00 64 1019.0
20260504040828 19 179 3.2 8.0 0.00 0.00 0.00 63 1019.0
20260504040336 19 177 3.2 6.4 0.00 0.00 0.00 63 1018.9
20260504035842 20 183 3.2 8.0 0.00 0.00 0.00 63 1018.9
20260504035328 20 178 1.6 8.0 0.00 0.00 0.00 62 1018.9
20260504034834 20 186 3.2 8.0 0.00 0.00 0.00 62 1019.0
20260504034323 20 128 4.8 8.0 0.00 0.00 0.00 61 1019.0
20260504033833 20 196 4.8 9.7 0.00 0.00 0.00 61 1019.0
20260504033337 20 143 4.8 9.7 0.00 0.00 0.00 61 1019.0
20260504032822 20 180 4.8 9.7 0.00 0.00 0.00 60 1019.0
20260504032326 20 165 6.4 9.7 0.00 0.00 0.00 60 1019.0
20260504031851 20 172 3.2 11.3 0.00 0.00 0.00 59 1018.8
20260504031333 20 160 4.8 11.3 0.00 0.00 0.00 59 1018.8
20260504030836 20 188 4.8 9.7 0.00 0.00 0.00 58 1018.8
20260504030323 21 160 3.2 16.1 0.00 0.00 0.00 58 1018.5
20260504025828 21 154 6.4 16.1 0.00 0.00 0.00 58 1018.5
20260504025335 21 138 8.0 16.1 0.00 0.00 0.00 57 1018.5
20260504024822 21 135 11.3 16.1 0.00 0.00 0.00 57 1018.6
20260504024329 21 145 11.3 16.1 0.00 0.00 0.00 57 1018.6
20260504023837 21 138 8.0 14.5 0.00 0.00 0.00 57 1018.6
20260504023321 21 138 6.4 14.5 0.00 0.00 0.00 56 1018.6
20260504022828 21 125 6.4 14.5 0.00 0.00 0.00 56 1018.6
20260504022334 21 187 9.7 14.5 0.00 0.00 0.00 55 1018.6
20260504021820 21 165 6.4 14.5 0.00 0.00 0.00 55 1018.5
20260504021328 21 167 8.0 16.1 0.00 0.00 0.00 54 1018.5
20260504020855 21 151 9.7 16.1 0.00 0.00 0.00 54 1018.5
20260504020320 22 163 6.4 16.1 0.00 0.00 0.00 54 1018.3
20260504015824 22 142 8.0 17.7 0.00 0.00 0.00 53 1018.3
20260504015337 22 200 9.7 17.7 0.00 0.00 0.00 53 1018.3
20260504014824 22 179 6.4 12.9 0.00 0.00 0.00 53 1018.1
20260504014331 22 141 6.4 16.1 0.00 0.00 0.00 53 1018.1
20260504013837 22 162 9.7 16.1 0.00 0.00 0.00 53 1018.1
20260504013346 22 190 6.4 17.7 0.00 0.00 0.00 52 1018.0
20260504012829 22 188 9.7 19.3 0.00 0.00 0.00 52 1018.0
20260504012335 22 160 9.7 19.3 0.00 0.00 0.00 51 1018.0
20260504011824 23 165 4.8 14.5 0.00 0.00 0.00 50 1018.1
20260504011332 23 138 6.4 11.3 0.00 0.00 0.00 50 1018.1
20260504010857 23 151 6.4 14.5 0.00 0.00 0.00 49 1018.1
20260504010343 23 151 6.4 16.1 0.00 0.00 0.00 49 1018.0
20260504005827 23 142 8.0 16.1 0.00 0.00 0.00 49 1018.0
20260504005333 23 132 4.8 14.5 0.00 0.00 0.00 49 1018.0
20260504004843 23 132 6.4 16.1 0.00 0.00 0.00 48 1018.0
20260504004331 23 146 8.0 16.1 0.00 0.00 0.00 48 1018.0
20260504003837 23 146 8.0 17.7 0.00 0.00 0.00 48 1018.0
20260504003326 23 139 9.7 17.7 0.00 0.00 0.00 47 1018.0
20260504002834 23 146 6.4 16.1 0.00 0.00 0.00 47 1018.0
20260504002338 24 146 8.0 19.3 0.00 0.00 0.00 47 1018.0
20260504001822 24 135 8.0 20.9 0.00 0.00 0.00 47 1018.0
20260504001328 25 149 12.9 20.9 0.00 0.00 0.00 46 1018.0
20260504000834 25 155 8.0 17.7 0.00 0.00 0.00 43 1018.1
20260504000320 25 177 8.0 16.1 0.00 0.00 0.00 40 1018.1
20260503235826 25 154 8.0 16.1 0.00 0.00 0.00 40 1018.1
20260503235336 25 180 9.7 16.1 0.00 0.00 0.00 39 1018.1
20260503234825 25 177 6.4 19.3 0.00 0.00 0.00 39 1018.0
20260503234331 25 193 4.8 19.3 0.00 0.00 0.00 38 1018.0
20260503233901 26 194 4.8 16.1 0.00 0.00 0.00 38 1018.0
20260503233325 26 182 8.0 16.1 0.00 0.00 0.00 38 1018.2
20260503232851 26 172 11.3 22.5 0.00 0.00 0.00 37 1018.2
20260503232334 26 172 12.9 22.5 0.00 0.00 0.00 38 1018.2
20260503231819 26 139 4.8 11.3 0.00 0.00 0.00 38 1018.2
20260503231327 26 222 6.4 11.3 0.00 0.00 0.00 39 1018.2
20260503230855 26 188 6.4 16.1 0.00 0.00 0.00 38 1018.2
20260503230339 26 189 6.4 19.3 0.00 0.00 0.00 38 1018.5
20260503225845 26 132 14.5 19.3 0.00 0.00 0.00 39 1018.5
20260503225329 26 132 14.5 19.3 0.00 0.00 0.00 38 1018.5
20260503224835 26 136 4.8 17.7 0.00 0.00 0.00 38 1018.5
20260503224322 26 144 8.0 16.1 0.00 0.00 0.00 38 1018.5
20260503223848 26 133 9.7 14.5 0.00 0.00 0.00 37 1018.5